Location: Karcze
(52.0945°N, 22.4786°E)
Time: 22:06:13
(UTC+00:00)

Transit 4A - Pass Details

Date: 05 August 2021
Orbit: 871 x 974 km, 66.8° (Epoch: 18 September)

Event Time Altitude Azimuth Distance (km) Brightness Sun altitude
Exits shadow 23:21:34 - 257° (WSW) 2,732 10.1 -20.5°
Reaches altitude 10° 23:22:10 10° 259° (W) 2,530 10.0 -20.5°
Maximum altitude 23:27:31 36° 326° (NW) 1,349 9.1 -20.3°
Drops below altitude 10° 23:32:53 10° 32° (NNE) 2,532 11.2 -20.1°
Sets 23:35:35 0° 41° (NE) 3,478 12.0 -20.0°
